Wind_Speed
33 35 34 33 36 45 54 56 52 48 45 42 38 33 28 26 19 16 14 11 9 7 7 5 11 14 20 28 33 35 37 39 38 37 26 25 25 28 23 18 19 23 23 23
32 32 35 37 38 42 50 58 58 54 53 45 45 41 36 33 28 21 19 16 9 10 10 8 10 11 12 19 26 29 31 37 38 38 32 24 22 25 26 27 20 22 23 24
37 36 36 40 43 44 46 53 60 59 57 54 49 47 42 36 32 25 24 21 15 12 14 13 10 13 10 11 17 24 26 24 26 28 34 33 25 21 24 29 24 21 24 27
38 38 39 41 43 46 49 50 57 64 63 59 55 51 51 41 39 29 29 26 20 15 15 14 10 11 10 8 9 11 20 21 21 25 26 30 33 29 26 29 26 24 28 29
32 32 32 34 36 41 48 54 54 63 68 66 62 56 55 48 46 37 35 28 25 22 18 16 13 11 9 9 8 6 11 17 20 21 22 27 32 38 30 31 29 27 31 41
29 33 38 40 42 44 46 52 57 59 68 70 66 62 60 55 51 41 37 34 31 26 23 19 16 14 13 10 11 11 12 13 19 19 14 18 22 24 31 32 30 29 33 34
36 39 41 41 45 47 50 54 56 66 65 76 71 68 64 61 56 47 46 40 35 31 26 25 20 13 14 13 12 14 14 13 15 15 13 13 15 20 23 28 31 29 28 28
38 40 42 40 40 42 44 52 60 66 74 71 77 78 68 66 64 58 56 48 42 34 30 31 25 21 18 17 15 15 19 18 17 16 17 17 16 17 19 20 23 24 23 20
44 42 43 43 42 40 42 47 55 68 72 74 81 84 76 68 65 64 63 57 48 41 37 35 31 29 22 20 19 19 18 21 19 17 16 16 16 16 17 18 15 18 21 19
42 41 42 43 42 39 42 44 46 54 72 78 81 88 81 75 68 67 65 63 55 46 43 37 38 35 29 23 23 25 21 20 18 18 16 13 13 15 16 17 16 13 14 13
38 40 39 38 37 37 38 38 41 43 63 80 86 90 87 82 75 71 69 63 60 52 52 43 42 42 35 28 25 26 27 23 22 19 18 13 9 8 13 14 14 14 13 11
36 38 37 38 38 37 37 38 34 36 59 81 86 85 92 85 80 79 73 70 61 55 51 47 44 42 40 38 31 29 29 29 27 23 20 17 14 13 11 16 14 13 13 13
38 40 38 35 37 38 36 37 36 29 45 73 93 92 92 93 90 84 80 71 69 60 57 55 48 47 43 43 40 34 31 30 31 28 24 21 19 12 10 14 20 19 17 14
39 40 38 38 38 37 38 39 41 33 37 71 90 95 96 95 91 89 83 78 71 68 70 63 57 53 47 45 43 39 37 33 33 33 31 26 23 20 19 21 21 23 24 21
37 37 38 40 39 40 43 43 46 44 36 60 93 94 94 101 98 96 90 84 79 71 76 67 63 58 54 52 47 44 41 39 36 35 33 30 26 26 24 28 26 25 29 27
35 38 40 41 43 46 48 51 56 49 40 58 88 97 95 101 100 99 93 87 81 75 71 69 65 58 59 56 52 48 46 45 42 38 34 33 36 32 31 29 32 29 31 31
38 38 41 43 48 52 53 57 52 46 44 63 88 94 96 100 106 99 96 93 84 74 69 70 64 62 61 56 54 53 47 50 49 48 44 38 37 39 37 37 36 36 34 35
36 39 41 47 51 53 43 41 45 43 47 65 86 95 96 100 104 101 99 93 88 78 73 73 70 64 61 52 52 58 56 52 54 52 48 48 42 43 44 42 40 40 44 47
34 38 42 49 49 36 30 33 40 44 48 61 81 93 97 100 105 105 95 93 89 84 73 74 73 74 65 60 58 65 61 58 60 58 54 51 48 49 50 51 49 49 41 49
35 38 44 48 34 25 26 32 38 44 49 60 76 91 96 99 99 102 103 99 97 96 93 81 80 77 73 68 70 70 65 62 64 61 63 61 57 56 50 55 53 57 52 55
32 35 40 42 25 18 21 32 36 36 40 58 71 83 93 96 91 92 92 107 105 101 98 91 84 85 77 76 73 74 68 62 68 66 62 62 64 63 61 63 61 60 60 61
29 33 36 36 20 18 23 29 30 31 37 52 68 75 83 76 97 85 93 99 106 108 106 97 92 83 79 80 76 74 73 78 75 76 76 70 69 68 66 64 62 57 56 61
28 29 32 31 19 18 25 28 31 32 30 43 62 72 78 77 90 93 87 96 95 101 110 104 100 86 84 83 80 79 84 76 81 82 80 76 78 79 74 72 67 64 65 63
24 24 26 29 18 15 26 31 30 32 34 41 54 59 72 72 78 86 81 90 96 96 104 109 103 92 83 85 85 82 80 85 83 81 79 79 82 80 76 74 73 71 72 76
22 21 22 25 21 13 23 31 33 30 33 36 41 61 60 67 67 79 87 91 89 89 94 100 104 102 82 81 82 84 83 73 77 89 90 84 81 80 80 79 80 81 80 79
19 19 18 19 21 14 11 31 36 34 33 36 39 48 58 71 65 71 79 86 87 88 86 84 90 92 97 97 84 84 81 83 80 76 79 85 86 83 84 84 84 84 85 84
Wind_Direction
238 233 230 231 231 225 219 217 218 215 216 206 213 215 206 186 204 195 173 146 150 139 136 102 77 78 87 86 78 77 74 73 71 70 79 79 71 74 84 113 130 130 135 136
244 238 233 228 230 233 226 220 217 217 218 202 211 214 210 196 194 203 182 166 148 177 141 142 93 102 99 91 85 74 75 72 72 70 67 74 68 65 74 78 114 132 139 141
249 246 242 236 231 231 235 227 221 217 217 210 207 209 214 201 194 196 191 181 167 188 167 150 134 113 112 107 93 80 80 76 68 65 69 68 63 64 68 71 90 120 132 140
250 248 246 244 240 234 231 234 227 221 215 217 203 207 209 201 196 195 190 184 173 180 188 169 162 134 121 125 109 92 86 83 79 67 73 74 73 71 72 73 86 112 128 136
246 241 245 244 243 241 235 231 235 227 218 216 205 204 204 198 200 190 195 187 183 182 194 192 182 170 153 142 140 110 102 95 96 88 80 81 78 75 78 80 86 109 126 129
254 256 259 256 257 257 244 235 229 232 226 216 209 202 202 196 198 194 203 197 181 186 194 194 192 181 172 163 149 132 122 115 112 113 90 94 86 79 81 87 94 108 119 122
269 269 269 266 264 259 251 242 234 227 228 222 210 202 206 198 191 198 204 199 197 183 193 204 196 195 190 174 164 142 138 134 131 119 127 101 92 89 91 89 98 105 113 117
270 268 268 271 271 260 251 247 237 231 224 223 211 211 203 205 197 204 205 205 201 183 197 209 207 212 202 184 174 163 148 137 138 131 126 128 121 112 108 100 101 105 110 119
276 278 276 276 278 271 266 263 249 236 227 220 215 211 206 205 205 205 206 201 204 194 201 208 202 212 216 190 183 177 163 157 142 136 132 133 137 136 128 123 119 112 113 111
278 280 277 276 276 272 272 268 263 241 227 220 216 211 208 202 203 204 201 200 202 203 207 203 201 212 219 199 193 187 183 176 166 146 141 135 129 147 149 143 131 131 124 124
279 279 272 269 270 272 272 275 273 255 222 216 215 211 209 200 203 206 207 202 209 207 211 205 208 208 217 211 197 195 198 196 189 183 171 169 162 148 159 167 160 150 149 145
280 278 274 276 273 275 274 276 274 260 221 210 210 211 208 203 202 205 208 206 203 209 213 210 211 210 211 215 209 203 203 202 213 203 200 196 207 228 203 182 186 179 176 169
277 274 275 276 278 275 274 276 275 273 228 210 207 209 207 206 201 204 210 205 207 209 216 219 219 211 211 217 214 211 210 212 213 218 212 215 212 194 206 213 192 189 187 189
279 275 276 280 281 276 272 277 279 276 233 215 205 206 207 205 200 201 207 208 206 208 215 213 221 215 211 217 217 216 217 215 224 225 224 222 220 208 213 219 216 218 211 204
282 279 281 284 281 275 274 275 279 276 245 219 206 205 204 203 201 197 203 206 205 209 215 215 216 216 215 217 218 218 218 217 219 227 228 223 228 231 236 239 238 239 229 223
285 285 286 285 280 279 277 275 274 266 241 214 205 204 203 202 202 198 199 203 207 205 215 215 212 217 217 217 221 219 223 223 221 227 229 230 237 237 242 243 240 241 237 232
288 287 290 288 290 287 279 267 255 244 228 207 206 204 202 202 204 198 200 201 204 208 213 212 211 216 216 218 221 221 222 225 227 231 234 233 236 238 242 248 245 242 236 237
292 294 298 301 298 287 269 251 234 222 216 207 204 205 202 202 204 199 200 201 204 204 208 211 214 215 214 218 225 228 226 229 228 231 233 237 237 241 242 244 245 249 247 244
299 304 307 307 304 284 257 233 220 212 208 205 204 205 204 202 205 203 201 202 205 204 205 211 211 213 214 216 223 227 230 231 232 232 234 237 240 245 248 249 247 251 258 255
305 311 311 316 308 270 233 215 210 209 207 199 201 204 205 204 204 208 211 205 206 207 211 210 216 217 220 224 226 231 232 234 232 232 238 235 238 244 248 250 252 251 251 259
310 314 319 324 309 256 226 212 211 211 212 206 199 204 206 205 203 206 209 213 209 208 216 217 210 218 219 223 227 232 229 229 235 232 238 241 238 240 238 246 252 257 259 262
310 317 323 331 315 239 216 214 212 216 210 208 200 199 206 206 204 204 209 214 216 213 215 219 218 216 215 220 224 229 234 232 237 239 241 243 242 242 245 248 250 247 256 256
306 318 325 336 319 242 221 215 215 221 212 210 208 199 201 204 206 205 211 214 217 220 220 218 218 222 221 220 224 228 230 230 235 239 240 241 246 245 248 249 248 247 248 258
310 317 326 340 327 260 222 216 221 221 210 212 213 202 202 201 207 206 207 213 217 219 224 221 220 223 223 225 228 230 233 235 234 236 238 239 243 246 249 250 252 254 258 257
306 315 322 339 337 299 232 219 219 220 219 213 209 208 198 194 201 204 206 211 214 219 223 227 226 227 218 218 221 222 228 233 240 242 244 241 244 251 254 253 258 258 259 258
302 314 319 339 347 315 259 221 216 216 220 218 213 208 201 193 198 207 214 213 216 216 219 218 224 228 229 225 224 230 232 235 235 235 238 246 249 252 254 257 258 257 257 258
Height
10910 10914 10918 10920 10922 10926 10931 10936 10942 10948 10954 10961 10966 10971 10977 10980 10983 10986 10987 10988 10989 10991 10989 10988 10988 10987 10985 10981 10977 10974 10973 10971 10968 10967 10964 10962 10960 10959 10957 10956 10956 10957 10960 10962
10902 10906 10910 10913 10915 10916 10921 10927 10934 10941 10947 10955 10961 10966 10970 10975 10978 10982 10985 10986 10988 10990 10990 10988 10989 10990 10990 10987 10983 10980 10979 10977 10976 10974 10971 10968 10966 10964 10963 10960 10959 10959 10961 10963
10893 10896 10899 10902 10905 10909 10912 10918 10925 10932 10938 10946 10951 10958 10963 10970 10974 10976 10981 10983 10985 10988 10989 10988 10989 10991 10993 10992 10989 10986 10984 10983 10982 10981 10978 10975 10972 10971 10967 10965 10963 10964 10966 10966
10883 10884 10887 10890 10894 10899 10903 10909 10913 10918 10927 10934 10942 10950 10956 10962 10968 10969 10975 10979 10982 10985 10988 10989 10989 10990 10992 10994 10992 10991 10989 10988 10988 10987 10984 10984 10980 10978 10975 10973 10971 10971 10971 10973
10873 10875 10877 10880 10883 10885 10890 10897 10902 10907 10914 10924 10934 10940 10947 10953 10960 10964 10970 10974 10978 10981 10984 10986 10989 10990 10991 10993 10993 10993 10992 10992 10991 10991 10992 10990 10988 10987 10984 10982 10981 10980 10979 10981
10864 10866 10866 10869 10871 10872 10877 10883 10889 10894 10901 10912 10922 10931 10937 10943 10952 10957 10964 10970 10973 10978 10981 10984 10986 10988 10989 10993 10993 10994 10995 10995 10994 10994 10996 10995 10994 10994 10993 10991 10991 10992 10992 10992
10853 10853 10853 10855 10856 10857 10861 10865 10872 10876 10886 10892 10910 10918 10925 10934 10941 10949 10957 10961 10969 10973 10977 10980 10984 10988 10988 10991 10992 10994 10996 10997 10998 10998 10999 10999 10998 10999 11000 10999 10999 11000 11001 11002
10840 10841 10841 10843 10843 10843 10844 10847 10852 10858 10868 10879 10895 10900 10912 10922 10932 10941 10948 10956 10963 10967 10972 10976 10981 10985 10987 10989 10991 10993 10995 10998 10999 11000 11001 11001 11001 11003 11004 11005 11005 11005 11006 11008
10827 10828 10829 10829 10828 10828 10829 10829 10832 10838 10850 10864 10875 10884 10900 10911 10921 10930 10939 10948 10953 10956 10963 10971 10977 10981 10985 10987 10989 10992 10994 10996 10999 11000 11002 11003 11004 11006 11007 11008 11009 11009 11008 11009
10815 10815 10815 10814 10814 10814 10813 10813 10813 10816 10827 10842 10855 10871 10886 10899 10911 10920 10929 10938 10944 10949 10957 10964 10971 10975 10980 10984 10987 10989 10993 10995 10997 10998 11002 11004 11006 11007 11009 11010 11010 11012 11012 11012
10803 10801 10802 10800 10801 10800 10798 10798 10796 10795 10804 10819 10836 10856 10869 10885 10899 10908 10918 10929 10937 10941 10947 10955 10962 10969 10975 10980 10983 10987 10989 10994 10996 10997 10999 11002 11005 11007 11009 11010 11011 11011 11012 11014
10792 10789 10788 10787 10787 10786 10785 10784 10782 10781 10784 10798 10821 10845 10854 10875 10885 10896 10907 10918 10927 10935 10939 10946 10955 10963 10970 10974 10979 10982 10985 10989 10993 10995 10997 10999 11002 11005 11008 11009 11011 11010 11011 11013
10779 10775 10775 10774 10773 10771 10771 10770 10768 10768 10773 10780 10794 10815 10842 10852 10867 10881 10894 10906 10918 10926 10933 10938 10947 10954 10960 10968 10973 10977 10980 10983 10987 10992 10993 10996 10999 11001 11003 11006 11008 11010 11011 11012
10764 10762 10761 10760 10758 10756 10754 10755 10752 10754 10758 10763 10780 10797 10810 10839 10855 10866 10882 10894 10904 10914 10918 10927 10936 10946 10953 10959 10965 10970 10975 10978 10981 10985 10989 10992 10995 10998 11000 11002 11005 11006 11007 11009
10751 10748 10748 10744 10742 10741 10738 10738 10737 10738 10744 10750 10760 10783 10801 10819 10833 10849 10865 10877 10890 10900 10907 10920 10928 10935 10943 10950 10956 10961 10966 10971 10974 10978 10982 10987 10990 10992 10995 10997 10999 11000 11002 11003
10739 10736 10732 10728 10725 10722 10721 10719 10718 10720 10727 10733 10754 10766 10785 10804 10824 10836 10851 10866 10877 10891 10898 10911 10921 10927 10935 10941 10946 10952 10958 10964 10967 10971 10975 10979 10982 10985 10987 10990 10992 10994 10995 10997
10726 10722 10718 10711 10706 10700 10697 10692 10693 10700 10708 10716 10733 10758 10770 10789 10805 10824 10838 10853 10868 10883 10892 10901 10911 10919 10925 10932 10938 10943 10949 10954 10958 10961 10966 10969 10973 10976 10979 10981 10983 10985 10987 10988
10713 10708 10701 10693 10685 10670 10666 10669 10672 10683 10692 10705 10718 10738 10760 10774 10790 10810 10824 10845 10859 10871 10881 10893 10901 10909 10917 10926 10929 10933 10938 10943 10947 10951 10955 10959 10964 10966 10969 10972 10974 10976 10978 10979
10701 10695 10687 10676 10661 10651 10650 10654 10661 10670 10680 10693 10710 10725 10746 10765 10780 10801 10820 10838 10848 10863 10870 10880 10887 10895 10903 10911 10915 10919 10926 10930 10936 10940 10943 10948 10953 10956 10959 10961 10963 10965 10966 10966
10690 10684 10674 10662 10648 10642 10641 10647 10655 10663 10670 10682 10692 10709 10733 10751 10773 10794 10808 10820 10830 10842 10850 10858 10870 10882 10888 10896 10900 10905 10912 10918 10922 10928 10932 10936 10941 10944 10946 10948 10950 10951 10952 10953
10681 10674 10665 10652 10643 10640 10642 10645 10652 10660 10670 10677 10691 10705 10723 10746 10766 10779 10785 10794 10811 10823 10831 10840 10854 10866 10875 10880 10886 10892 10901 10906 10907 10914 10917 10920 10926 10929 10932 10934 10938 10939 10939 10938
10675 10667 10660 10649 10641 10640 10641 10645 10652 10660 10667 10675 10685 10699 10718 10735 10749 10758 10767 10782 10796 10807 10816 10828 10838 10846 10858 10867 10873 10878 10883 10891 10894 10898 10902 10905 10908 10912 10917 10921 10924 10925 10923 10922
10669 10663 10656 10648 10640 10639 10642 10647 10652 10657 10664 10673 10678 10689 10705 10719 10734 10747 10757 10772 10778 10787 10798 10811 10823 10832 10844 10851 10858 10864 10866 10872 10878 10882 10886 10889 10889 10895 10901 10904 10906 10909 10912 10908
10664 10659 10653 10645 10639 10636 10639 10644 10649 10653 10659 10666 10673 10682 10693 10711 10722 10736 10744 10751 10759 10770 10783 10794 10805 10817 10825 10835 10843 10848 10850 10854 10861 10865 10869 10875 10873 10878 10885 10889 10892 10894 10894 10893
10659 10655 10650 10644 10638 10634 10634 10639 10644 10649 10654 10662 10670 10678 10686 10699 10710 10717 10724 10733 10747 10759 10770 10779 10790 10801 10811 10817 10824 10830 10835 10838 10841 10848 10852 10859 10861 10862 10864 10870 10872 10874 10874 10875
10654 10650 10647 10643 10638 10633 10631 10633 10638 10644 10650 10657 10666 10675 10682 10689 10696 10704 10710 10721 10732 10744 10756 10765 10774 10782 10790 10798 10806 10813 10818 10824 10827 10830 10831 10838 10843 10846 10849 10849 10853 10852 10850 10851